Millinocket, ME

6:24 AM EST on January 20, 2018 (GMT -0500)
Millinocket Municipal

Weather History for KMLT - May, 2013

Change the Weather History Date:

Wednesday, May 22, 2013

  Actual Average Record
Temperature  
Mean Temperature 52 °F 55 °F  
Max Temperature 55 °F 67 °F 96 °F (1911)
Min Temperature 49 °F 44 °F 23 °F (1906)
Degree Days  
Heating Degree Days 13 10  
Month to date heating degree days 225 290  
Since 1 July heating degree days 7508 8211  
Cooling Degree Days 0 0  
Month to date cooling degree days 0 0  
Year to date cooling degree days 0 0  
Growing Degree Days 2 (Base 50)    
Moisture  
Dew Point 50 °F    
Average Humidity 93    
Maximum Humidity 100    
Minimum Humidity 86    
Precipitation  
Precipitation 0.45 in 0.11 in 1.21 in (1973)
Month to date precipitation 2.12 2.27  
Year to date precipitation 8.50 14.00  
Snow  
Snow 0.00 in - - ()
Month to date snowfall 0.0  
Snow Depth 0.00 in    
Sea Level Pressure  
Sea Level Pressure 29.99 in    
Wind  
Wind Speed 5 mph (SE)    
Max Wind Speed 12 mph    
Max Gust Speed 15 mph    
Visibility 5 miles    
Events Rain    
T = Trace of Precipitation, MM = Missing Value Source: NWS Daily Summary

Daily Weather History Graph

Daily Weather History Graph

Search for Another Location

Airport or City:

Trip Planner

Search our weather history database for the weather conditions in past years. The results will help you decide how hot, cold, wet, or windy it might be!

Date:

Astronomy

May. 22, 2013 Rise Set
Actual Time 4:56 AM EDT 8:07 PM EDT
Civil Twilight 4:20 AM EDT 8:43 PM EDT
Nautical Twilight 3:34 AM EDT 9:29 PM EDT
Astronomical Twilight 2:37 AM EDT 10:27 PM EDT
Moon 5:18 PM EDT (5/22) 3:07 AM EDT (5/22)
Length of Visible Light 16h 22m
Length of Day
15h 11m
Waxing Gibbous, 91% of the Moon is Illuminated
May 22
Waxing Gibbous
May 25
Full
May 31
Last Quarter
Jun 8
New
Jun 16
First Quarter

Hourly Weather History & Observations

Time (EDT) Temp. Dew Point Humidity Pressure Visibility Wind Dir Wind Speed Gust Speed Precip Events Conditions
12:53 AM 51.1 °F 48.9 °F 92% 30.03 in 10.0 mi Variable 3.5 mph - N/A   Mostly Cloudy
1:06 AM 51.8 °F 48.2 °F 88% 30.00 in 10.0 mi SE 3.5 mph - N/A   Overcast
1:37 AM 50.0 °F 48.2 °F 94% 29.98 in 10.0 mi Variable 3.5 mph - 0.00 in Rain Light Rain
1:53 AM 50.0 °F 48.0 °F 93% 30.01 in 10.0 mi Variable 3.5 mph - 0.00 in   Overcast
2:53 AM 50.0 °F 48.0 °F 93% 30.01 in 10.0 mi Calm Calm - 0.00 in Rain Light Rain
3:53 AM 50.0 °F 48.0 °F 93% 30.03 in 8.0 mi Calm Calm - 0.03 in Rain Light Rain
4:46 AM 48.2 °F 48.2 °F 100% 30.02 in 7.0 mi ESE 3.5 mph - 0.06 in Rain Rain
4:53 AM 48.9 °F 48.0 °F 97% 30.04 in 7.0 mi ESE 4.6 mph - 0.07 in Rain Light Rain
5:24 AM 48.2 °F 46.4 °F 93% 30.01 in 8.0 mi East 4.6 mph - 0.03 in Rain Light Rain
5:53 AM 48.9 °F 46.9 °F 93% 30.02 in 8.0 mi East 4.6 mph - 0.05 in Rain Light Rain
6:01 AM 48.2 °F 46.4 °F 93% 30.00 in 10.0 mi East 5.8 mph - 0.01 in Rain Light Rain
6:53 AM 48.9 °F 46.9 °F 93% 30.01 in 5.0 mi Variable 4.6 mph - 0.06 in Rain Rain
7:26 AM 48.2 °F 48.2 °F 100% 30.01 in 2.5 mi East 3.5 mph - 0.06 in Rain Rain
7:35 AM 48.2 °F 48.2 °F 100% 30.01 in 3.0 mi ESE 3.5 mph - 0.07 in Rain Rain
7:48 AM 48.2 °F 48.2 °F 100% 30.02 in 2.5 mi ESE 5.8 mph - 0.10 in Rain Rain
7:53 AM 50.0 °F 48.0 °F 93% 30.04 in 3.0 mi ESE 4.6 mph - 0.11 in Rain Rain
8:50 AM 50.0 °F 48.2 °F 94% 30.01 in 4.0 mi Variable 6.9 mph - 0.03 in Rain Light Rain
8:53 AM 50.0 °F 48.9 °F 96% 30.03 in 4.0 mi ESE 5.8 mph - 0.03 in Rain Light Rain
9:38 AM 51.8 °F 48.2 °F 88% 30.01 in 6.0 mi ESE 8.1 mph - 0.01 in   Overcast
9:46 AM 51.8 °F 50.0 °F 94% 30.00 in 4.0 mi ESE 9.2 mph - 0.01 in   Overcast
9:53 AM 52.0 °F 50.0 °F 93% 30.02 in 4.0 mi ESE 8.1 mph - 0.01 in   Overcast
10:39 AM 53.6 °F 50.0 °F 88% 30.00 in 10.0 mi Variable 5.8 mph - N/A   Overcast
10:53 AM 53.1 °F 50.0 °F 89% 30.02 in 6.0 mi SE 6.9 mph - N/A   Overcast
11:09 AM 53.6 °F 51.8 °F 94% 30.01 in 2.5 mi SSE 5.8 mph - N/A   Overcast
11:53 AM 53.1 °F 50.0 °F 89% 30.02 in 2.5 mi ESE 4.6 mph - 0.01 in Rain Light Rain
12:11 PM 53.6 °F 50.0 °F 88% 30.00 in 3.0 mi ESE 6.9 mph - 0.00 in   Overcast
12:28 PM 53.6 °F 51.8 °F 94% 30.00 in 3.0 mi SE 5.8 mph - 0.00 in   Overcast
12:50 PM 53.6 °F 51.8 °F 94% 30.00 in 3.0 mi SE 5.8 mph - 0.00 in   Overcast
12:53 PM 53.1 °F 51.1 °F 93% 30.02 in 3.0 mi Variable 4.6 mph - 0.00 in   Overcast
1:06 PM 53.6 °F 51.8 °F 94% 29.99 in 5.0 mi SE 8.1 mph - N/A   Overcast
1:53 PM 54.0 °F 51.1 °F 90% 30.01 in 5.0 mi ESE 5.8 mph - 0.00 in   Overcast
2:08 PM 53.6 °F 51.8 °F 94% 29.99 in 9.0 mi SE 5.8 mph - N/A   Overcast
2:41 PM 53.6 °F 51.8 °F 94% 29.99 in 4.0 mi ESE 3.5 mph - 0.01 in   Overcast
2:53 PM 54.0 °F 52.0 °F 93% 30.01 in 2.5 mi ESE 5.8 mph - 0.01 in   Overcast
3:01 PM 53.6 °F 51.8 °F 94% 29.98 in 2.5 mi ESE 6.9 mph - N/A   Overcast
3:05 PM 53.6 °F 51.8 °F 94% 29.98 in 3.0 mi ESE 5.8 mph - N/A   Overcast
3:26 PM 53.6 °F 53.6 °F 100% 29.98 in 3.0 mi ESE 4.6 mph - N/A   Overcast
3:38 PM 53.6 °F 51.8 °F 94% 29.97 in 2.0 mi ESE 5.8 mph - 0.00 in Rain Light Rain
3:53 PM 55.0 °F 53.1 °F 93% 29.99 in 3.0 mi ESE 5.8 mph - 0.00 in   Overcast
4:17 PM 55.4 °F 53.6 °F 94% 29.97 in 5.0 mi SE 4.6 mph - N/A   Overcast
4:37 PM 55.4 °F 51.8 °F 88% 29.96 in 4.0 mi SE 8.1 mph - N/A   Overcast
4:53 PM 55.0 °F 52.0 °F 89% 29.97 in 5.0 mi ESE 9.2 mph - N/A   Overcast
5:15 PM 55.4 °F 51.8 °F 88% 29.96 in 2.0 mi SE 5.8 mph - N/A   Overcast
5:27 PM 55.4 °F 53.6 °F 94% 29.97 in 3.0 mi SE 4.6 mph - N/A   Overcast
5:32 PM 53.6 °F 51.8 °F 94% 29.97 in 1.8 mi SSE 3.5 mph - 0.01 in Rain Light Rain
5:38 PM 55.4 °F 53.6 °F 94% 29.97 in 1.2 mi SE 4.6 mph - 0.01 in Rain Light Rain
5:51 PM 55.4 °F 53.6 °F 94% 29.97 in 1.8 mi SE 5.8 mph - 0.02 in Rain Light Rain
5:53 PM 55.0 °F 53.1 °F 93% 29.99 in 1.5 mi Variable 3.5 mph - 0.02 in Rain Light Rain
6:31 PM 53.6 °F 51.8 °F 94% 29.97 in 2.0 mi Variable 6.9 mph - 0.01 in   Overcast
6:40 PM 53.6 °F 51.8 °F 94% 29.97 in 1.8 mi Variable 3.5 mph - 0.01 in Rain Light Rain
6:53 PM 54.0 °F 52.0 °F 93% 29.99 in 1.5 mi Variable 5.8 mph - 0.02 in Rain Light Rain
6:58 PM 53.6 °F 51.8 °F 94% 29.97 in 2.0 mi Variable 5.8 mph - 0.00 in Rain Light Rain
7:21 PM 53.6 °F 51.8 °F 94% 29.98 in 3.0 mi Variable 4.6 mph - 0.00 in   Overcast
7:30 PM 53.6 °F 51.8 °F 94% 29.98 in 5.0 mi Variable 3.5 mph - 0.00 in   Overcast
7:38 PM 53.6 °F 51.8 °F 94% 29.97 in 1.8 mi SE 5.8 mph - 0.00 in   Overcast
7:48 PM 53.6 °F 51.8 °F 94% 29.98 in 1.2 mi SE 4.6 mph - 0.01 in   Overcast
7:53 PM 53.1 °F 51.1 °F 93% 30.00 in 1.5 mi SE 8.1 mph - 0.01 in   Overcast
8:07 PM 51.8 °F 50.0 °F 94% 29.99 in 2.5 mi SE 5.8 mph - N/A   Overcast
8:14 PM 51.8 °F 50.0 °F 94% 29.98 in 4.0 mi SE 5.8 mph - N/A   Overcast
8:31 PM 51.8 °F 50.0 °F 94% 29.98 in 5.0 mi SE 5.8 mph - N/A   Overcast
8:53 PM 51.1 °F 50.0 °F 96% 30.00 in 4.0 mi SE 6.9 mph - N/A   Overcast
9:40 PM 51.8 °F 48.2 °F 88% 29.99 in 2.0 mi SSE 3.5 mph - N/A   Overcast
9:53 PM 51.1 °F 48.9 °F 92% 30.00 in 3.0 mi ESE 4.6 mph - 0.01 in   Overcast
10:19 PM 50.0 °F 48.2 °F 94% 29.98 in 2.5 mi SE 4.6 mph - N/A   Overcast
10:31 PM 51.8 °F 48.2 °F 88% 29.97 in 6.0 mi SE 3.5 mph - N/A   Overcast
10:43 PM 51.8 °F 48.2 °F 88% 29.97 in 10.0 mi SE 4.6 mph - N/A   Overcast
10:53 PM 51.1 °F 48.9 °F 92% 29.99 in 10.0 mi SE 3.5 mph - N/A   Overcast
11:53 PM 50.0 °F 48.0 °F 93% 29.98 in 9.0 mi Variable 5.8 mph - 0.00 in   Overcast